SV1AAW Weather Reports


time (UTC)temp
F
wind
direction
speed
knots
gust
knots
rain 1hr
in
rain 24hr
in
rain mn
in
humidity
%
barometer
mb
20260506172039 69 0.0 0.0 0.00 0.00 0.00 47 1016.9
20260506171017 69 324 0.0 0.9 0.00 0.00 0.00 46 1016.8
20260506170022 70 324 0.0 0.9 0.00 0.00 0.00 45 1016.7
20260506165016 71 324 0.9 0.9 0.00 0.00 0.00 43 1016.6
20260506164022 71 327 0.9 1.7 0.00 0.00 0.00 44 1016.6
20260506163019 71 353 0.9 1.7 0.00 0.00 0.00 45 1016.6
20260506162021 72 11 0.9 2.6 0.00 0.00 0.00 44 1016.6
20260506161018 73 11 1.7 2.6 0.00 0.00 0.00 40 1016.5
20260506160024 73 15 1.7 3.5 0.00 0.00 0.00 40 1016.5
20260506155043 73 9 0.9 2.6 0.00 0.00 0.00 38 1016.5
20260506154020 74 34 0.9 2.6 0.00 0.00 0.00 39 1016.5
20260506153018 74 93 0.9 1.7 0.00 0.00 0.00 36 1016.6
20260506152023 74 126 1.7 3.5 0.00 0.00 0.00 36 1016.6
20260506151018 73 329 0.9 1.7 0.00 0.00 0.00 39 1016.6
20260506150017 73 11 1.7 2.6 0.00 0.00 0.00 39 1016.6
20260506145021 73 1 0.9 2.6 0.00 0.00 0.00 39 1016.7
20260506144017 74 16 0.9 3.5 0.00 0.00 0.00 37 1016.7
20260506143016 75 36 1.7 3.5 0.00 0.00 0.00 35 1016.5
20260506142023 75 117 1.7 3.5 0.00 0.00 0.00 34 1016.5
20260506141019 74 58 1.7 2.6 0.00 0.00 0.00 35 1016.6
20260506140025 74 51 1.7 3.5 0.00 0.00 0.00 36 1016.7
20260506135022 73 20 2.6 3.5 0.00 0.00 0.00 36 1016.7
20260506134019 74 28 2.6 5.2 0.00 0.00 0.00 40 1016.8
20260506133025 74 49 1.7 3.5 0.00 0.00 0.00 36 1016.8
20260506132023 74 29 2.6 5.2 0.00 0.00 0.00 35 1016.7
20260506131018 76 29 2.6 6.1 0.00 0.00 0.00 34 1016.7
20260506130017 76 74 0.9 2.6 0.00 0.00 0.00 33 1016.7
20260506125024 75 98 0.9 2.6 0.00 0.00 0.00 34 1016.8
20260506124102 75 122 1.7 3.5 0.00 0.00 0.00 35 1016.8
20260506123018 74 124 1.7 5.2 0.00 0.00 0.00 36 1017.0
20260506122023 74 120 1.7 3.5 0.00 0.00 0.00 35 1017.1
20260506121024 73 144 1.7 5.2 0.00 0.00 0.00 36 1017.2
20260506120041 73 107 1.7 3.5 0.00 0.00 0.00 39 1017.3
20260506115042 72 133 1.7 3.5 0.00 0.00 0.00 41 1017.4
20260506114019 72 121 1.7 5.2 0.00 0.00 0.00 43 1017.4
20260506113019 70 163 2.6 6.1 0.00 0.00 0.00 44 1017.6
20260506112026 70 148 4.3 7.0 0.00 0.00 0.00 44 1017.7
20260506111043 69 142 4.3 7.0 0.00 0.00 0.00 45 1017.7
20260506110042 69 144 4.3 7.8 0.00 0.00 0.00 45 1017.7
20260506105022 69 150 4.3 7.8 0.00 0.00 0.00 43 1017.7
20260506104025 68 161 4.3 7.8 0.00 0.00 0.00 42 1017.8
20260506103023 68 146 6.1 8.7 0.00 0.00 0.00 42 1017.9
20260506102023 68 142 6.1 9.6 0.00 0.00 0.00 41 1017.9
20260506101020 68 142 6.1 8.7 0.00 0.00 0.00 42 1018.0
20260506100016 68 153 4.3 7.8 0.00 0.00 0.00 46 1018.1
20260506095022 69 171 2.6 7.0 0.00 0.00 0.00 45 1018.2
20260506094042 67 128 2.6 7.0 0.00 0.00 0.00 49 1018.2
20260506093022 67 138 2.6 7.8 0.00 0.00 0.00 50 1018.4
20260506092041 67 123 1.7 6.1 0.00 0.00 0.00 49 1018.3
20260506091018 68 150 2.6 7.0 0.00 0.00 0.00 42 1018.4
20260506090025 68 154 2.6 6.1 0.00 0.00 0.00 43 1018.5
20260506085024 67 139 1.7 3.5 0.00 0.00 0.00 45 1018.4
20260506084023 67 111 1.7 3.5 0.00 0.00 0.00 44 1018.4
20260506083022 67 138 1.7 3.5 0.00 0.00 0.00 43 1018.4
20260506082021 66 112 1.7 3.5 0.00 0.00 0.00 42 1018.5
20260506081021 66 130 1.7 2.6 0.00 0.00 0.00 43 1018.4
20260506073021 62 16 1.7 3.5 0.00 0.00 0.00 59 1018.4
20260506072018 62 30 1.7 3.5 0.00 0.00 0.00 59 1018.3
20260506071024 62 14 2.6 3.5 0.00 0.00 0.00 57 1018.3
20260506062021 60 30 1.7 5.2 0.00 0.00 0.00 65 1018.4
20260506061021 60 34 1.7 3.5 0.00 0.00 0.00 63 1018.4
20260506051017 61 81 0.9 1.7 0.00 0.00 0.00 67 1018.2
20260506045016 60 72 0.9 3.5 0.00 0.00 0.00 70 1018.1
20260506044026 59 4 0.9 2.6 0.00 0.00 0.00 73 1018.1
20260506043024 58 348 0.9 1.7 0.00 0.00 0.00 75 1018.0
20260506042023 57 350 1.7 3.5 0.00 0.00 0.00 78 1018.0
20260506041023 56 146 0.0 0.9 0.00 0.00 0.00 79 1017.9
20260506040020 55 145 0.0 0.9 0.00 0.00 0.00 80 1017.8
20260506035016 55 145 0.0 0.9 0.00 0.00 0.00 81 1017.8
20260506034023 55 147 0.0 0.9 0.00 0.00 0.00 81 1017.7
20260506033022 54 0.0 0.0 0.00 0.00 0.00 80 1017.6
20260506032017 55 0.0 0.0 0.00 0.00 0.00 80 1017.5
20260506031026 55 0.0 0.0 0.00 0.00 0.00 80 1017.5
20260506030025 55 0.0 0.0 0.00 0.00 0.00 79 1017.4
20260506025020 55 148 0.0 0.9 0.00 0.00 0.00 79 1017.4
20260506024019 55 0.0 0.0 0.00 0.00 0.00 78 1017.4
20260506023018 55 148 0.0 0.9 0.00 0.00 0.00 79 1017.4
20260506022023 55 149 0.0 0.9 0.00 0.00 0.00 79 1017.4
20260506021017 55 0.0 0.0 0.00 0.00 0.00 79 1017.4
20260506020017 55 0.0 0.0 0.00 0.00 0.00 78 1017.3
20260506015039 55 0.0 0.0 0.00 0.00 0.00 77 1017.3
20260506014036 55 0.0 0.0 0.00 0.00 0.00 77 1017.4
20260506013022 55 0.0 0.0 0.00 0.00 0.00 76 1017.3
20260506012021 55 0.0 0.0 0.00 0.00 0.00 75 1017.3
20260506011022 56 0.0 0.0 0.00 0.00 0.00 75 1017.2
20260506010021 56 0.0 0.0 0.00 0.00 0.00 74 1017.2
20260506004018 56 0.0 0.0 0.00 0.00 0.00 73 1017.2
20260506003023 56 0.0 0.0 0.00 0.00 0.00 73 1017.2
20260506002023 56 0.0 0.0 0.00 0.00 0.00 72 1017.2
20260506001019 56 0.0 0.0 0.00 0.00 0.00 71 1017.2
20260506000025 56 0.0 0.0 0.00 0.00 0.00 71 1017.1
20260505235022 57 0.0 0.0 0.00 0.00 0.00 70 1017.2
20260505234022 56 0.0 0.0 0.00 0.00 0.00 70 1017.2
20260505233019 56 0.0 0.0 0.00 0.00 0.00 70 1017.2
20260505232050 57 164 0.0 0.9 0.00 0.00 0.00 70 1017.2
20260505231025 57 0.0 0.0 0.00 0.00 0.00 70 1017.1
20260505230025 57 0.0 0.0 0.00 0.00 0.00 70 1017.2
20260505224022 58 164 0.9 1.7 0.00 0.00 0.00 70 1017.2
20260505223021 58 164 0.0 0.9 0.00 0.00 0.00 69 1017.3
20260505222018 58 164 0.0 0.9 0.00 0.00 0.00 70 1017.4
20260505221025 58 169 0.9 1.7 0.00 0.00 0.00 70 1017.4
20260505220025 58 170 0.9 1.7 0.00 0.00 0.00 71 1017.4
20260505215024 58 170 0.0 0.9 0.00 0.00 0.00 71 1017.4
20260505214021 58 0.0 0.0 0.00 0.00 0.00 71 1017.4
20260505213021 59 171 0.0 0.9 0.00 0.00 0.00 71 1017.4
20260505212059 59 0.0 0.0 0.00 0.00 0.00 71 1017.3
20260505211025 59 171 0.0 0.9 0.00 0.00 0.00 71 1017.3
20260505210055 59 171 0.0 0.9 0.00 0.00 0.00 71 1017.4
20260505205018 60 188 0.0 1.7 0.00 0.00 0.00 70 1017.3
20260505204024 60 0.0 0.0 0.00 0.00 0.00 70 1017.4
20260505203024 60 0.0 0.0 0.00 0.00 0.00 69 1017.3
20260505202022 60 0.0 0.0 0.00 0.00 0.00 69 1017.2
20260505201022 61 0.0 0.0 0.00 0.00 0.00 67 1017.2
20260505200018 61 0.0 0.0 0.00 0.00 0.00 67 1017.3
20260505195017 61 0.0 0.0 0.00 0.00 0.00 65 1017.2
20260505194025 62 198 0.0 0.9 0.00 0.00 0.00 64 1017.3
20260505193042 62 0.0 0.0 0.00 0.00 0.00 63 1017.1
20260505192025 62 198 0.0 0.9 0.00 0.00 0.00 62 1017.0
20260505191022 63 199 0.0 1.7 0.00 0.00 0.00 63 1017.0
20260505190020 63 146 0.0 1.7 0.00 0.00 0.00 65 1017.0
20260505185018 64 164 0.9 2.6 0.00 0.00 0.00 65 1017.0
20260505184044 64 176 1.7 3.5 0.00 0.00 0.00 64 1016.8
20260505183020 64 150 0.9 2.6 0.00 0.00 0.00 60 1016.7
20260505182017 64 141 0.9 2.6 0.00 0.00 0.00 53 1016.6
20260505181026 65 144 0.0 1.7 0.00 0.00 0.00 50 1016.6
20260505180016 65 154 0.9 1.7 0.00 0.00 0.00 51 1016.5
20260505175025 65 0.0 0.0 0.00 0.00 0.00 49 1016.4
20260505174021 66 237 0.0 0.9 0.00 0.00 0.00 48 1016.3
20260505173018 66 249 0.0 0.9 0.00 0.00 0.00 47 1016.2